VLG5544 LERS-LEGR

Flight info

Callsign VLG5544
Flight time 1h 25m
Altitude 31000
Route CTN DCT CLS DCT VAB DCT YES DCT CI09Y
Aircraft A20N/M-SDE2E3FGHIRWXY/LB1

Departure

Time 2026-05-04 19:10
Airport Reus Airport (LERS)

Arrival

Time 2026-05-04 20:36
Airport F.G.L. Airport Granada-Jaén Airport (LEGR)
Time Latitude Longitude Altitude Speed Heading
2026-05-04 18:57 41.14789 1.15989 251 ft 0 kts 340°
2026-05-04 19:00 41.14785 1.15991 251 ft 2 kts 340°
2026-05-04 19:01 41.14771 1.15998 250 ft 2 kts 340°
2026-05-04 19:01 41.14756 1.16005 249 ft 2 kts 340°
2026-05-04 19:01 41.14742 1.16012 248 ft 2 kts 340°
2026-05-04 19:01 41.14728 1.16018 248 ft 2 kts 359°
2026-05-04 19:02 41.14714 1.16013 247 ft 2 kts 40°
2026-05-04 19:02 41.14707 1.16003 247 ft 0 kts 65°
2026-05-04 19:02 41.14704 1.15993 247 ft 0 kts 69°
2026-05-04 19:04 41.14708 1.16005 247 ft 2 kts 68°
2026-05-04 19:05 41.14718 1.16038 246 ft 5 kts 68°
2026-05-04 19:05 41.14734 1.16093 246 ft 7 kts 69°
2026-05-04 19:05 41.14755 1.16168 245 ft 9 kts 69°
2026-05-04 19:05 41.14782 1.16261 245 ft 11 kts 69°
2026-05-04 19:06 41.14814 1.16369 244 ft 13 kts 69°
2026-05-04 19:06 41.14850 1.16493 242 ft 15 kts 69°
2026-05-04 19:06 41.14888 1.16625 243 ft 15 kts 69°
2026-05-04 19:06 41.14929 1.16764 242 ft 16 kts 69°
2026-05-04 19:07 41.14972 1.16914 241 ft 17 kts 69°
2026-05-04 19:07 41.15015 1.17064 242 ft 17 kts 69°
2026-05-04 19:07 41.15060 1.17215 242 ft 17 kts 69°
2026-05-04 19:07 41.15102 1.17374 241 ft 18 kts 71°
2026-05-04 19:08 41.15153 1.17538 239 ft 19 kts 69°
2026-05-04 19:08 41.15202 1.17707 239 ft 20 kts 68°
2026-05-04 19:08 41.15253 1.17880 238 ft 20 kts 69°
2026-05-04 19:08 41.15303 1.18054 239 ft 17 kts 69°
2026-05-04 19:09 41.15344 1.18196 242 ft 15 kts 70°
2026-05-04 19:09 41.15346 1.18323 242 ft 10 kts 156°
2026-05-04 19:09 41.15275 1.18323 241 ft 11 kts 195°
2026-05-04 19:09 41.15202 1.18272 239 ft 12 kts 224°
2026-05-04 19:10 41.15161 1.18162 238 ft 18 kts 249°
2026-05-04 19:10 41.15010 1.17648 236 ft 100 kts 249°
2026-05-04 19:10 41.14677 1.16512 273 ft 161 kts 249°
2026-05-04 19:10 41.14278 1.15107 978 ft 165 kts 249°
2026-05-04 19:11 41.13891 1.13722 1858 ft 164 kts 249°
2026-05-04 19:11 41.13318 1.12414 2558 ft 173 kts 227°
2026-05-04 19:11 41.12298 1.11434 3119 ft 192 kts 212°
2026-05-04 19:11 41.11153 1.10363 3627 ft 213 kts 224°
2026-05-04 19:12 41.09971 1.09011 4128 ft 236 kts 222°
2026-05-04 19:12 41.07309 1.06040 5606 ft 261 kts 223°
2026-05-04 19:12 41.05925 1.04472 6575 ft 265 kts 223°
2026-05-04 19:13 41.04536 1.02890 7519 ft 268 kts 223°
2026-05-04 19:13 41.03144 1.01290 8465 ft 271 kts 223°
2026-05-04 19:13 41.01727 0.99653 9427 ft 273 kts 223°
2026-05-04 19:13 41.00316 0.98023 10329 ft 275 kts 223°
2026-05-04 19:14 40.98882 0.96366 10916 ft 289 kts 223°
2026-05-04 19:14 40.97345 0.94589 11356 ft 307 kts 223°
2026-05-04 19:14 40.95735 0.92731 11958 ft 318 kts 223°
2026-05-04 19:14 40.94069 0.90813 12820 ft 321 kts 223°
2026-05-04 19:15 40.92397 0.88887 13689 ft 322 kts 223°
2026-05-04 19:15 40.90699 0.86933 14495 ft 325 kts 223°
2026-05-04 19:15 40.89015 0.85002 15313 ft 327 kts 223°
2026-05-04 19:15 40.87286 0.83032 16122 ft 329 kts 223°
2026-05-04 19:16 40.85553 0.81056 16922 ft 330 kts 223°
2026-05-04 19:16 40.83826 0.79083 17652 ft 333 kts 223°
2026-05-04 19:16 40.82074 0.77079 18427 ft 334 kts 223°
2026-05-04 19:16 40.80331 0.75086 19166 ft 336 kts 223°
2026-05-04 19:17 40.78550 0.73047 19849 ft 339 kts 223°
2026-05-04 19:17 40.76777 0.71018 20529 ft 341 kts 223°
2026-05-04 19:17 40.74979 0.68962 21189 ft 344 kts 223°
2026-05-04 19:17 40.73173 0.66897 21849 ft 346 kts 223°
2026-05-04 19:18 40.71348 0.64811 22509 ft 348 kts 223°
2026-05-04 19:18 40.69505 0.62707 23125 ft 352 kts 223°
2026-05-04 19:18 40.67635 0.60574 23763 ft 354 kts 223°
2026-05-04 19:18 40.65780 0.58461 24367 ft 356 kts 224°
2026-05-04 19:19 40.63883 0.56301 24958 ft 359 kts 224°
2026-05-04 19:19 40.62013 0.54175 25513 ft 361 kts 224°
2026-05-04 19:19 40.60102 0.52000 26042 ft 364 kts 224°
2026-05-04 19:19 40.58184 0.49822 26537 ft 367 kts 224°
2026-05-04 19:20 40.56240 0.47615 27034 ft 370 kts 224°
2026-05-04 19:20 40.54276 0.45385 27542 ft 372 kts 224°
2026-05-04 19:20 40.52336 0.43186 28009 ft 374 kts 224°
2026-05-04 19:20 40.50338 0.40924 28400 ft 378 kts 224°
2026-05-04 19:21 40.48325 0.38644 28648 ft 384 kts 224°
2026-05-04 19:21 40.46310 0.36366 29074 ft 386 kts 224°
2026-05-04 19:21 40.44281 0.34075 29611 ft 384 kts 223°
2026-05-04 19:21 40.42271 0.31795 30064 ft 384 kts 223°
2026-05-04 19:22 40.40241 0.29492 30431 ft 386 kts 223°
2026-05-04 19:22 40.38208 0.27194 30766 ft 388 kts 223°
2026-05-04 19:22 40.36163 0.24886 30913 ft 390 kts 223°
2026-05-04 19:23 40.32035 0.20245 30926 ft 391 kts 223°
2026-05-04 19:23 40.27882 0.15586 30934 ft 391 kts 223°
2026-05-04 19:24 40.23937 0.10684 30938 ft 389 kts 229°
2026-05-04 19:24 40.20462 0.05266 30939 ft 388 kts 235°
2026-05-04 19:25 40.17469 -0.00616 30941 ft 387 kts 239°
2026-05-04 19:25 40.14648 -0.06607 30941 ft 387 kts 239°
2026-05-04 19:26 40.11821 -0.12605 30947 ft 386 kts 239°
2026-05-04 19:26 40.09022 -0.18537 30948 ft 386 kts 239°
2026-05-04 19:27 40.06196 -0.24522 30943 ft 386 kts 239°
2026-05-04 19:27 40.03381 -0.30475 30945 ft 386 kts 239°
2026-05-04 19:28 40.00539 -0.36470 30952 ft 387 kts 239°
2026-05-04 19:28 39.97712 -0.42423 30962 ft 387 kts 239°
2026-05-04 19:29 39.94872 -0.48395 30976 ft 387 kts 239°
2026-05-04 19:29 39.92027 -0.54362 30977 ft 387 kts 239°
2026-05-04 19:30 39.89183 -0.60312 30987 ft 386 kts 239°
2026-05-04 19:30 39.86336 -0.66208 30986 ft 385 kts 239°
2026-05-04 19:31 39.83496 -0.72133 30993 ft 385 kts 239°
2026-05-04 19:31 39.80653 -0.78059 30990 ft 385 kts 239°
2026-05-04 19:32 39.77806 -0.83979 30981 ft 385 kts 239°
2026-05-04 19:32 39.74959 -0.89883 30989 ft 385 kts 239°
2026-05-04 19:33 39.71931 -0.95595 30984 ft 386 kts 234°
2026-05-04 19:33 39.68453 -1.00915 30988 ft 387 kts 229°
2026-05-04 19:34 39.64555 -1.05786 30992 ft 389 kts 225°
2026-05-04 19:34 39.60525 -1.10490 31001 ft 389 kts 225°
2026-05-04 19:35 39.56511 -1.15152 30998 ft 388 kts 225°
2026-05-04 19:35 39.52464 -1.19852 30994 ft 389 kts 225°
2026-05-04 19:36 39.48437 -1.24515 30992 ft 388 kts 225°
2026-05-04 19:36 39.44418 -1.29158 30991 ft 388 kts 225°
2026-05-04 19:37 39.40379 -1.33816 30989 ft 388 kts 225°
2026-05-04 19:37 39.36327 -1.38483 30993 ft 389 kts 225°
2026-05-04 19:38 39.32264 -1.43155 30991 ft 389 kts 225°
2026-05-04 19:38 39.28206 -1.47811 30994 ft 389 kts 225°
2026-05-04 19:39 39.24163 -1.52442 30992 ft 389 kts 226°
2026-05-04 19:39 39.20114 -1.57075 30995 ft 389 kts 226°
2026-05-04 19:40 39.16073 -1.61693 30995 ft 389 kts 226°
2026-05-04 19:40 39.11996 -1.66342 30993 ft 389 kts 225°
2026-05-04 19:41 39.07938 -1.70984 30995 ft 389 kts 226°
2026-05-04 19:41 39.03951 -1.75525 30991 ft 389 kts 226°
2026-05-04 19:42 38.99909 -1.80113 30997 ft 390 kts 225°
2026-05-04 19:42 38.95800 -1.84686 31000 ft 390 kts 224°
2026-05-04 19:43 38.91373 -1.88824 30997 ft 393 kts 218°
2026-05-04 19:43 38.86810 -1.92688 31001 ft 393 kts 219°
2026-05-04 19:44 38.82444 -1.96376 30999 ft 394 kts 219°
2026-05-04 19:44 38.77984 -2.00142 31002 ft 394 kts 219°
2026-05-04 19:45 38.73416 -2.03999 31004 ft 393 kts 219°
2026-05-04 19:45 38.68826 -2.07869 30999 ft 394 kts 219°
2026-05-04 19:46 38.64257 -2.11716 31004 ft 394 kts 219°
2026-05-04 19:46 38.59660 -2.15582 31003 ft 395 kts 219°
2026-05-04 19:47 38.55074 -2.19432 31009 ft 395 kts 219°
2026-05-04 19:47 38.50476 -2.23285 31013 ft 394 kts 219°
2026-05-04 19:48 38.45880 -2.27129 31012 ft 394 kts 219°
2026-05-04 19:48 38.41298 -2.30986 31011 ft 394 kts 220°
2026-05-04 19:49 38.36995 -2.35226 31018 ft 390 kts 226°
2026-05-04 19:49 38.33098 -2.39990 31020 ft 386 kts 231°
2026-05-04 19:50 38.29711 -2.44966 31018 ft 385 kts 234°
2026-05-04 19:50 38.26218 -2.50225 31037 ft 386 kts 234°
2026-05-04 19:51 38.22747 -2.55450 31030 ft 385 kts 234°
2026-05-04 19:51 38.19277 -2.60669 31038 ft 386 kts 234°
2026-05-04 19:52 38.15816 -2.65866 31039 ft 386 kts 233°
2026-05-04 19:52 38.12355 -2.71080 31049 ft 388 kts 234°
2026-05-04 19:53 38.08872 -2.76313 31051 ft 387 kts 233°
2026-05-04 19:53 38.05381 -2.81541 30430 ft 393 kts 233°
2026-05-04 19:53 38.03604 -2.84201 29670 ft 394 kts 233°
2026-05-04 19:54 38.01832 -2.86849 28863 ft 396 kts 233°
2026-05-04 19:54 38.00052 -2.89504 28100 ft 396 kts 233°
2026-05-04 19:54 37.98420 -2.91936 27586 ft 392 kts 233°
2026-05-04 19:54 37.96591 -2.94654 27093 ft 386 kts 233°
2026-05-04 19:55 37.94870 -2.97208 26606 ft 380 kts 233°
2026-05-04 19:55 37.93150 -2.99765 26115 ft 376 kts 233°
2026-05-04 19:55 37.91472 -3.02255 25605 ft 372 kts 232°
2026-05-04 19:55 37.89827 -3.04697 25119 ft 368 kts 232°
2026-05-04 19:56 37.88166 -3.07142 24641 ft 364 kts 232°
2026-05-04 19:56 37.86545 -3.09523 24164 ft 361 kts 232°
2026-05-04 19:56 37.84911 -3.11924 23669 ft 358 kts 232°
2026-05-04 19:56 37.83280 -3.14328 23156 ft 356 kts 232°
2026-05-04 19:57 37.81693 -3.16669 22679 ft 353 kts 232°
2026-05-04 19:57 37.80100 -3.19019 22213 ft 350 kts 232°
2026-05-04 19:57 37.78591 -3.21247 21769 ft 346 kts 232°
2026-05-04 19:57 37.77056 -3.23507 21374 ft 342 kts 232°
2026-05-04 19:58 37.75625 -3.25614 21024 ft 338 kts 232°
2026-05-04 19:58 37.74069 -3.27907 20659 ft 333 kts 232°
2026-05-04 19:58 37.72554 -3.30133 20305 ft 329 kts 232°
2026-05-04 19:58 37.71081 -3.32301 19963 ft 326 kts 232°
2026-05-04 19:59 37.69614 -3.34459 19524 ft 325 kts 232°
2026-05-04 19:59 37.68172 -3.36578 18975 ft 328 kts 232°
2026-05-04 19:59 37.66676 -3.38778 18355 ft 332 kts 232°
2026-05-04 19:59 37.65184 -3.40968 17775 ft 334 kts 231°
2026-05-04 20:00 37.63668 -3.43191 17259 ft 333 kts 231°
2026-05-04 20:00 37.62176 -3.45374 16785 ft 331 kts 231°
2026-05-04 20:00 37.60671 -3.47576 16307 ft 330 kts 231°
2026-05-04 20:00 37.59186 -3.49748 15857 ft 327 kts 232°
2026-05-04 20:01 37.57701 -3.51918 15406 ft 325 kts 231°
2026-05-04 20:01 37.56233 -3.54064 14941 ft 323 kts 231°
2026-05-04 20:01 37.54753 -3.56225 14488 ft 321 kts 231°
2026-05-04 20:01 37.53311 -3.58329 14052 ft 319 kts 231°
2026-05-04 20:02 37.51867 -3.60436 13607 ft 317 kts 231°
2026-05-04 20:02 37.50423 -3.62542 13163 ft 315 kts 231°
2026-05-04 20:02 37.48994 -3.64623 12714 ft 314 kts 231°
2026-05-04 20:02 37.47578 -3.66692 12259 ft 314 kts 231°
2026-05-04 20:03 37.46146 -3.68789 11794 ft 313 kts 230°
2026-05-04 20:03 37.44731 -3.70856 11355 ft 313 kts 231°
2026-05-04 20:03 37.43306 -3.72933 10892 ft 312 kts 230°
2026-05-04 20:03 37.41882 -3.75003 10447 ft 311 kts 230°
2026-05-04 20:04 37.40476 -3.77046 10288 ft 304 kts 230°
2026-05-04 20:04 37.39116 -3.79015 10187 ft 290 kts 230°
2026-05-04 20:04 37.37818 -3.80896 10107 ft 277 kts 230°
2026-05-04 20:04 37.36580 -3.82686 9935 ft 268 kts 230°
2026-05-04 20:05 37.35347 -3.84473 9590 ft 266 kts 230°
2026-05-04 20:05 37.34132 -3.86233 9268 ft 264 kts 230°
2026-05-04 20:05 37.32928 -3.87974 8949 ft 263 kts 230°
2026-05-04 20:05 37.31735 -3.89699 8634 ft 261 kts 230°
2026-05-04 20:06 37.30537 -3.91428 8320 ft 260 kts 230°
2026-05-04 20:06 37.29359 -3.93129 8008 ft 259 kts 230°
2026-05-04 20:06 37.28167 -3.94850 7671 ft 259 kts 230°
2026-05-04 20:06 37.26984 -3.96555 7367 ft 258 kts 230°
2026-05-04 20:07 37.25802 -3.98258 7062 ft 257 kts 230°
2026-05-04 20:07 37.24627 -3.99951 6775 ft 257 kts 230°
2026-05-04 20:07 37.23449 -4.01645 6482 ft 256 kts 231°
2026-05-04 20:07 37.22277 -4.03330 6195 ft 256 kts 231°
2026-05-04 20:08 37.21100 -4.05023 5906 ft 255 kts 229°
2026-05-04 20:08 37.19717 -4.06403 5592 ft 258 kts 204°
2026-05-04 20:08 37.17965 -4.06795 5315 ft 256 kts 175°
2026-05-04 20:08 37.16311 -4.06151 5243 ft 244 kts 148°
2026-05-04 20:09 37.15105 -4.04763 5223 ft 228 kts 122°
2026-05-04 20:09 37.14500 -4.02992 5211 ft 211 kts 95°
2026-05-04 20:09 37.14707 -4.01259 5287 ft 193 kts 62°
2026-05-04 20:09 37.15537 -4.00089 5239 ft 172 kts 30°
2026-05-04 20:10 37.16573 -3.99492 5213 ft 154 kts 19°
2026-05-04 20:10 37.17574 -3.99013 5226 ft 153 kts 21°
2026-05-04 20:10 37.18402 -3.98201 5207 ft 154 kts 61°
2026-05-04 20:10 37.18692 -3.96897 5248 ft 158 kts 81°
2026-05-04 20:11 37.18762 -3.95492 5277 ft 160 kts 86°
2026-05-04 20:11 37.18776 -3.94096 5257 ft 160 kts 88°
2026-05-04 20:11 37.18777 -3.92683 5250 ft 161 kts 88°
2026-05-04 20:11 37.18779 -3.91288 5246 ft 161 kts 87°
2026-05-04 20:12 37.18785 -3.89746 5623 ft 187 kts 88°
2026-05-04 20:12 37.18796 -3.88086 6250 ft 200 kts 88°
2026-05-04 20:12 37.18812 -3.86226 6706 ft 222 kts 88°
2026-05-04 20:12 37.18827 -3.84230 6858 ft 236 kts 88°
2026-05-04 20:13 37.18839 -3.82144 7024 ft 239 kts 89°
2026-05-04 20:13 37.18854 -3.80069 7029 ft 239 kts 89°
2026-05-04 20:13 37.18870 -3.77974 7036 ft 238 kts 89°
2026-05-04 20:13 37.18885 -3.75902 7039 ft 237 kts 89°
2026-05-04 20:14 37.18912 -3.73824 7038 ft 236 kts 82°
2026-05-04 20:14 37.18888 -3.71762 7049 ft 237 kts 95°
2026-05-04 20:14 37.18927 -3.69709 7048 ft 237 kts 85°
2026-05-04 20:14 37.18963 -3.67632 7050 ft 238 kts 89°
2026-05-04 20:15 37.18961 -3.65567 7054 ft 237 kts 88°
2026-05-04 20:15 37.18981 -3.63498 7059 ft 237 kts 88°
2026-05-04 20:15 37.19002 -3.61422 7060 ft 237 kts 88°
2026-05-04 20:15 37.19018 -3.59338 7053 ft 237 kts 89°
2026-05-04 20:16 37.18719 -3.57340 7042 ft 236 kts 117°
2026-05-04 20:16 37.17643 -3.55813 7051 ft 233 kts 149°
2026-05-04 20:16 37.16111 -3.55253 7059 ft 231 kts 180°
2026-05-04 20:16 37.14497 -3.55467 7056 ft 232 kts 199°
2026-05-04 20:17 37.13232 -3.56628 7046 ft 227 kts 239°
2026-05-04 20:17 37.12752 -3.58487 7059 ft 226 kts 266°
2026-05-04 20:17 37.12809 -3.60442 7060 ft 227 kts 277°
2026-05-04 20:17 37.13009 -3.62424 7055 ft 227 kts 277°
2026-05-04 20:18 37.13130 -3.64395 7056 ft 227 kts 273°
2026-05-04 20:18 37.13181 -3.66390 7054 ft 227 kts 272°
2026-05-04 20:18 37.13217 -3.68356 7055 ft 226 kts 271°
2026-05-04 20:18 37.13251 -3.70332 7058 ft 226 kts 271°
2026-05-04 20:19 37.13287 -3.72310 7058 ft 226 kts 271°
2026-05-04 20:19 37.13322 -3.74258 7048 ft 225 kts 271°
2026-05-04 20:19 37.13356 -3.76224 7050 ft 224 kts 271°
2026-05-04 20:19 37.13387 -3.78208 7062 ft 230 kts 271°
2026-05-04 20:20 37.13399 -3.80219 7062 ft 233 kts 270°
2026-05-04 20:20 37.13367 -3.82273 7064 ft 233 kts 269°
2026-05-04 20:20 37.13314 -3.84308 7062 ft 233 kts 269°
2026-05-04 20:20 37.13256 -3.86351 7062 ft 234 kts 269°
2026-05-04 20:21 37.13198 -3.88375 7063 ft 233 kts 269°
2026-05-04 20:21 37.13142 -3.90413 7055 ft 232 kts 269°
2026-05-04 20:21 37.13040 -3.94486 7061 ft 232 kts 269°
2026-05-04 20:22 37.12993 -3.96488 7065 ft 232 kts 269°
2026-05-04 20:22 37.12942 -3.98537 7061 ft 231 kts 269°
2026-05-04 20:22 37.12891 -4.00555 7056 ft 229 kts 269°
2026-05-04 20:22 37.12839 -4.02512 7044 ft 223 kts 269°
2026-05-04 20:23 37.12788 -4.04450 7048 ft 223 kts 269°
2026-05-04 20:23 37.12736 -4.06401 7052 ft 223 kts 269°
2026-05-04 20:23 37.12683 -4.08346 7053 ft 222 kts 269°
2026-05-04 20:23 37.12630 -4.10267 7051 ft 223 kts 269°
2026-05-04 20:24 37.12575 -4.12228 7022 ft 220 kts 269°
2026-05-04 20:24 37.12521 -4.14130 6704 ft 221 kts 269°
2026-05-04 20:24 37.12458 -4.16077 6348 ft 223 kts 269°
2026-05-04 20:24 37.12389 -4.18023 6030 ft 224 kts 269°
2026-05-04 20:25 37.12316 -4.19937 5752 ft 223 kts 269°
2026-05-04 20:25 37.12237 -4.21898 5462 ft 222 kts 269°
2026-05-04 20:25 37.12155 -4.23823 5267 ft 219 kts 269°
2026-05-04 20:25 37.12075 -4.25733 5259 ft 221 kts 269°
2026-05-04 20:26 37.11991 -4.27671 5255 ft 221 kts 269°
2026-05-04 20:26 37.11990 -4.29620 5243 ft 224 kts 284°
2026-05-04 20:26 37.12767 -4.31243 5211 ft 220 kts 326°
2026-05-04 20:26 37.14198 -4.31875 5237 ft 222 kts 357°
2026-05-04 20:27 37.15717 -4.31500 5236 ft 225 kts 26°
2026-05-04 20:27 37.16882 -4.30215 5237 ft 229 kts 57°
2026-05-04 20:27 37.17367 -4.28312 5255 ft 234 kts 82°
2026-05-04 20:27 37.17497 -4.26271 5253 ft 235 kts 84°
2026-05-04 20:28 37.17623 -4.24232 5253 ft 235 kts 83°
2026-05-04 20:28 37.17763 -4.22178 5249 ft 234 kts 83°
2026-05-04 20:28 37.17912 -4.20178 5243 ft 227 kts 80°
2026-05-04 20:28 37.18208 -4.18246 5242 ft 226 kts 77°
2026-05-04 20:29 37.18438 -4.16291 5246 ft 227 kts 83°
2026-05-04 20:29 37.18562 -4.14310 5246 ft 228 kts 85°
2026-05-04 20:29 37.18642 -4.12310 5240 ft 224 kts 86°
2026-05-04 20:29 37.18683 -4.10432 5293 ft 205 kts 87°
2026-05-04 20:30 37.18702 -4.08731 5276 ft 188 kts 87°
2026-05-04 20:30 37.18711 -4.07156 5234 ft 171 kts 87°
2026-05-04 20:30 37.18716 -4.05726 5224 ft 161 kts 87°
2026-05-04 20:30 37.18721 -4.04323 5240 ft 160 kts 87°
2026-05-04 20:31 37.18727 -4.02933 5249 ft 159 kts 87°
2026-05-04 20:31 37.18731 -4.01529 5186 ft 160 kts 87°
2026-05-04 20:31 37.18736 -4.00132 5019 ft 159 kts 87°
2026-05-04 20:31 37.18741 -3.98769 4803 ft 158 kts 87°
2026-05-04 20:32 37.18746 -3.97407 4585 ft 150 kts 87°
2026-05-04 20:32 37.18751 -3.96143 4375 ft 144 kts 87°
2026-05-04 20:32 37.18758 -3.94882 4190 ft 143 kts 86°
2026-05-04 20:32 37.18765 -3.93632 4007 ft 142 kts 86°
2026-05-04 20:33 37.18772 -3.92416 3832 ft 142 kts 86°
2026-05-04 20:33 37.18779 -3.91166 3650 ft 142 kts 86°
2026-05-04 20:33 37.18785 -3.89935 3469 ft 142 kts 86°
2026-05-04 20:33 37.18792 -3.88702 3284 ft 141 kts 85°
2026-05-04 20:34 37.18800 -3.87455 3096 ft 141 kts 85°
2026-05-04 20:34 37.18809 -3.86241 2910 ft 140 kts 86°
2026-05-04 20:34 37.18818 -3.85014 2723 ft 141 kts 87°
2026-05-04 20:34 37.18827 -3.83777 2547 ft 141 kts 87°
2026-05-04 20:35 37.18833 -3.82543 2364 ft 141 kts 88°
2026-05-04 20:35 37.18843 -3.81300 2183 ft 142 kts 88°
2026-05-04 20:35 37.18854 -3.80052 2004 ft 142 kts 88°
2026-05-04 20:35 37.18864 -3.78821 1861 ft 138 kts 89°
2026-05-04 20:36 37.18873 -3.77813 1858 ft 76 kts 89°
2026-05-04 20:36 37.18874 -3.77435 1861 ft 29 kts 90°
2026-05-04 20:36 37.18866 -3.77231 1863 ft 16 kts 100°
2026-05-04 20:36 37.18836 -3.77095 1865 ft 15 kts 111°
2026-05-04 20:37 37.18788 -3.76983 1866 ft 13 kts 121°
2026-05-04 20:37 37.18719 -3.76966 1868 ft 12 kts 239°
2026-05-04 20:37 37.18711 -3.77072 1868 ft 12 kts 270°
2026-05-04 20:37 37.18712 -3.77177 1868 ft 13 kts 270°
2026-05-04 20:38 37.18708 -3.77302 1867 ft 14 kts 269°
2026-05-04 20:38 37.18709 -3.77427 1867 ft 14 kts 269°
2026-05-04 20:38 37.18671 -3.77495 1869 ft 10 kts 185°
2026-05-04 20:38 37.18616 -3.77494 1871 ft 3 kts 179°
2026-05-04 20:39 37.18595 -3.77494 1872 ft 2 kts 180°
2026-05-04 20:39 37.18586 -3.77494 1872 ft 0 kts 180°
2026-05-04 20:39 37.18582 -3.77494 1872 ft 1 kts 180°
2026-05-04 20:39 37.18578 -3.77494 1872 ft 0 kts 180°